Location: Helsinki
(60.1699°N, 24.9384°E)
Time: 01:26:29
(UTC+02:00)

ISS - Pass Details

Date: 02 December 2021
Orbit: 413 x 422 km, 51.6° (Epoch: 22 January)

Event Time Altitude Azimuth Distance (km) Brightness Sun altitude
Rises 18:50:24 0° 261° (W) 2,385 1.5 -24.0°
Reaches altitude 10° 18:53:35 10° 229° (SW) 1,514 -0.3 -24.4°
Maximum altitude 18:54:55 12° 205° (SSW) 1,400 -0.8 -24.6°
Enters shadow 18:55:18 12° 198° (SSW) 1,409 -0.9 -24.6°
